ECHOSTAR 21 (42749 NORAD) Tracking and Keplerian Element Data

This shows tracking and keplerian element data for the satellite.

Feedback or suggestion? Click here.




ElementValue
Catalog42749
NameECHOSTAR 21
Epoch Orbit1574
Epoch Day261.8701965
Epoch Year2021
RAAN311.1628
Inclination4.5586
Eccentricity0.0002449
Argument of Perigee211.6859
Mean Anonmoly158.6608
Mean Motion1.00271179
Decay Rate3.8E-07
L11 42749U 17032A 21261.87019650 .00000038 00000-0 00000-0 0 9998
L22 42749 4.5586 311.1628 0002449 211.6859 158.6608 1.00271179 15748

Live tracking and technical data element details for ECHOSTAR 21 (NORAD 42749). ECHOSTAR 21 can be tracked NOW for your location showing map with azimuth and elevation plus other details from your city location.

Track the satellite on the map from your city or location and see movement details for azimuth, elevation, latitude, longitude, range, height, and movement on the map or in text.







IsCatalogInMostPopularTable: catalog: 42749, numindb: 561
Update: records affected: 1



GetName: 42749 ECHOSTAR 21

Hit Count: updated at: Fri, 24 Sep 2021 17:50:16 GMT